"Pseudo-MPEC" for P11ldly

Created 2021 Oct 8 17:07:24 UT using Find_Orb

Click here for an explanation of pseudo-MPECs

 
 Astrometry: 
     P11ldly  C2021 09 18@xcX,`xjG/410j?4-=x,,!20TuikWtZwsD/%Astrometry^-J_p^F51
     P11ldly  C2021 09 18JNDredacted;n\;GBGHT1WP!Hau\^HZGNr.R1$6\+?ZSUuwwIR.\F51
     P11ldly  C2021 09 18c(C_[clickaherey(5forK6g]:XsywexplanationSSR(SOYV[h\F51

Station data:
(F51) Pan-STARRS 1, Haleakala  (N20.707235 W156.255910)  US/Hawaii.
   Observers N. Primak, A. Schultz, S. Watters, J. Thiel, T. Goggia. Measurer
   PS1 Science Consortium. 1.8-m Ritchey-Chrétien + CCD.

Orbital elements:  P11ldly
   Perihelion 2021 Sep 25.972192 +/- 157.548 TT = 23:19:57 (JD 2459483.472192)
Epoch 2021 Sep 19.0 TT = JDT 2459476.5   Earth MOID: 0.0079   AutoNEOCP
M 353.45089581 +/- 89.276344        (J2000 ecliptic)
n   0.93931782 +/- 0.593029         Peri.  226.62953 +/- 101.07364
a   1.03258942 +/- 0.434602         Node   137.00776 +/- 106.10482
e   0.0151584 +/- 0.206991          Incl.    0.91804 +/- 57.494503
P   1.05/383.25d           H 28.2   G  0.15   U 12.4  SR
q 1.01693693 +/- 0.779989    Q 1.04824191 +/- 19.0982
From 3 observations 2021 Sept. 18 (34.2 min); mean residual 0".06
Residuals in arcseconds: 
210918 F51  .03-  .06-    210918 F51  .05+  .11+    210918 F51  .03-  .06-    

Ephemerides (geocentric):
Date (UTC) HH   RA              Dec         delta   r     elong  mag " sig PA
---- -- -- --  -------------   -----------  ------ ------ -----  --- ---- ---
2021 10 08 17  03 35 17.985   -15 11 02.94  .02507 1.0170 135.3 21.9  62d 178
2021 10 08 18  03 35 15.712   -15 11 34.17  .02507 1.0171 135.3 21.9  62d 178
2021 10 08 19  03 35 13.430   -15 12 05.31  .02508 1.0171 135.4 21.9  62d 178
2021 10 08 20  03 35 11.139   -15 12 36.35  .02508 1.0171 135.4 21.9  62d 178
2021 10 08 21  03 35 08.838   -15 13 07.29  .02509 1.0171 135.4 21.9  62d 178
2021 10 08 22  03 35 06.529   -15 13 38.14  .02509 1.0171 135.5 21.9  62d 178
2021 10 08 23  03 35 04.210   -15 14 08.89  .02510 1.0171 135.5 21.9  62d 178
2021 10 09 00  03 35 01.883   -15 14 39.54  .02511 1.0171 135.5 21.9  62d 178
2021 10 09 01  03 34 59.547   -15 15 10.10  .02511 1.0171 135.5 21.9  62d 178
2021 10 09 02  03 34 57.202   -15 15 40.56  .02512 1.0171 135.6 21.9  62d 178
2021 10 09 03  03 34 54.848   -15 16 10.92  .02512 1.0171 135.6 21.9  62d 178
2021 10 09 04  03 34 52.485   -15 16 41.18  .02513 1.0171 135.6 21.9  63d 178
2021 10 09 05  03 34 50.113   -15 17 11.35  .02514 1.0171 135.7 21.9  63d 178
2021 10 09 06  03 34 47.733   -15 17 41.41  .02514 1.0171 135.7 21.9  63d 178
2021 10 09 07  03 34 45.343   -15 18 11.38  .02515 1.0171 135.7 21.9  63d 178
2021 10 09 08  03 34 42.945   -15 18 41.25  .02515 1.0171 135.8 21.9  63d 178
2021 10 09 09  03 34 40.539   -15 19 11.02  .02516 1.0171 135.8 21.9  63d 178
2021 10 09 10  03 34 38.124   -15 19 40.69  .02517 1.0171 135.8 21.9  63d 178
2021 10 09 11  03 34 35.700   -15 20 10.26  .02517 1.0171 135.8 21.9  63d 178
2021 10 09 12  03 34 33.267   -15 20 39.73  .02518 1.0171 135.9 21.9  63d 178
2021 10 09 13  03 34 30.826   -15 21 09.11  .02518 1.0171 135.9 21.9  63d 178
2021 10 09 14  03 34 28.377   -15 21 38.38  .02519 1.0171 135.9 21.9  63d 178
2021 10 09 15  03 34 25.919   -15 22 07.55  .02519 1.0171 136.0 21.9  63d 178
2021 10 09 16  03 34 23.452   -15 22 36.62  .02520 1.0171 136.0 21.9  63d 178
2021 10 09 17  03 34 20.977   -15 23 05.59  .02521 1.0171 136.0 21.9  63d 178
2021 10 09 18  03 34 18.493   -15 23 34.46  .02521 1.0171 136.1 21.9  63d 178
2021 10 09 19  03 34 16.001   -15 24 03.23  .02522 1.0171 136.1 21.9  63d 178
2021 10 09 20  03 34 13.501   -15 24 31.90  .02522 1.0171 136.1 21.9  63d 178
2021 10 09 21  03 34 10.993   -15 25 00.46  .02523 1.0171 136.2 21.9  63d 178
2021 10 09 22  03 34 08.476   -15 25 28.93  .02524 1.0171 136.2 21.9  63d 178
2021 10 09 23  03 34 05.951   -15 25 57.29  .02524 1.0171 136.2 21.9  63d 178
2021 10 10 00  03 34 03.417   -15 26 25.55  .02525 1.0171 136.2 21.9  63d 178
2021 10 10 01  03 34 00.875   -15 26 53.71  .02525 1.0171 136.3 21.9  63d 178
2021 10 10 02  03 33 58.326   -15 27 21.77  .02526 1.0171 136.3 21.9  63d 178
2021 10 10 03  03 33 55.768   -15 27 49.72  .02527 1.0171 136.3 21.9  63d 178
2021 10 10 04  03 33 53.201   -15 28 17.57  .02527 1.0171 136.4 21.9  63d 178
2021 10 10 05  03 33 50.627   -15 28 45.32  .02528 1.0171 136.4 21.9  63d 178
2021 10 10 06  03 33 48.045   -15 29 12.97  .02529 1.0171 136.4 21.9  63d 178
2021 10 10 07  03 33 45.454   -15 29 40.51  .02529 1.0171 136.5 21.9  63d 178
2021 10 10 08  03 33 42.856   -15 30 07.95  .02530 1.0171 136.5 21.9  63d 178
2021 10 10 09  03 33 40.249   -15 30 35.29  .02530 1.0171 136.5 21.9  63d 178
2021 10 10 10  03 33 37.635   -15 31 02.53  .02531 1.0171 136.5 21.9  63d 178
2021 10 10 11  03 33 35.013   -15 31 29.66  .02532 1.0171 136.6 21.9  62d   0
2021 10 10 12  03 33 32.383   -15 31 56.68  .02532 1.0171 136.6 21.9  62d   0
2021 10 10 13  03 33 29.744   -15 32 23.60  .02533 1.0171 136.6 21.9  62d   0
2021 10 10 14  03 33 27.098   -15 32 50.42  .02533 1.0171 136.7 21.9  62d   0
2021 10 10 15  03 33 24.445   -15 33 17.14  .02534 1.0171 136.7 21.9  62d   0
2021 10 10 16  03 33 21.783   -15 33 43.75  .02535 1.0171 136.7 21.9  62d   0